Location: *
(48.8489°N, 2.3218°E)
Time: 18:53:20
(UTC+00:00)

ATLAS 2AS CENTAUR R/B - Pass Details

Date: 23 August 2019
Orbit: 927 x 1285 km, 63.7° (Epoch: 11 September)

Event Time Altitude Azimuth Distance (km) Brightness Sun altitude
Rises 23:18:00 0° 314° (NW) 4,250 6.6 -29.4°
Reaches altitude 10° 23:21:04 10° 321° (NW) 3,257 5.9 -29.5°
Maximum altitude 23:28:34 45° 32° (NNE) 1,611 3.8 -29.6°
Enters shadow 23:33:53 18° 97° (E) 2,532 4.5 -29.7°
